TimePDT,TemperatureF,Dew PointF,Humidity,Sea Level PressureIn,VisibilityMPH,Wind Direction,Wind SpeedMPH,Gust SpeedMPH,PrecipitationIn,Events,Conditions,WindDirDegrees,DateUTC
12:15 AM,73.4,60.8,65,29.91,9.0,Calm,Calm,-,N/A,,Clear,0,2013-08-31 07:15:00
12:35 AM,73.4,60.8,65,29.91,7.0,SE,3.5,-,N/A,,Clear,140,2013-08-31 07:35:00
12:55 AM,73.4,62.6,69,29.91,10.0,SE,3.5,-,N/A,,Clear,140,2013-08-31 07:55:00
1:15 AM,71.6,60.8,69,29.91,9.0,Calm,Calm,-,N/A,,Clear,0,2013-08-31 08:15:00
1:35 AM,73.4,62.6,69,29.91,9.0,Calm,Calm,-,N/A,,Clear,0,2013-08-31 08:35:00
1:55 AM,73.4,60.8,65,29.91,8.0,Calm,Calm,-,N/A,,Clear,0,2013-08-31 08:55:00
2:15 AM,71.6,60.8,69,29.91,9.0,Calm,Calm,-,N/A,,Clear,0,2013-08-31 09:15:00
2:35 AM,71.6,60.8,69,29.90,10.0,Calm,Calm,-,N/A,,Clear,0,2013-08-31 09:35:00
2:55 AM,71.6,60.8,69,29.90,10.0,WSW,4.6,-,N/A,,Clear,250,2013-08-31 09:55:00
3:15 AM,71.6,60.8,69,29.90,10.0,Calm,Calm,-,N/A,,Clear,0,2013-08-31 10:15:00
3:35 AM,71.6,60.8,69,29.90,10.0,Calm,Calm,-,N/A,,Clear,0,2013-08-31 10:35:00
3:55 AM,71.6,60.8,69,29.89,10.0,Calm,Calm,-,N/A,,Clear,0,2013-08-31 10:55:00
4:15 AM,69.8,60.8,73,29.89,10.0,ESE,3.5,-,N/A,,Clear,110,2013-08-31 11:15:00
4:35 AM,71.6,60.8,69,29.90,10.0,Calm,Calm,-,N/A,,Clear,0,2013-08-31 11:35:00
4:55 AM,69.8,60.8,73,29.89,10.0,Calm,Calm,-,N/A,,Clear,0,2013-08-31 11:55:00
5:15 AM,69.8,60.8,73,29.90,10.0,Calm,Calm,-,N/A,,Clear,0,2013-08-31 12:15:00
5:35 AM,71.6,60.8,69,29.90,10.0,Calm,Calm,-,N/A,,Clear,0,2013-08-31 12:35:00
5:55 AM,71.6,60.8,69,29.90,10.0,Calm,Calm,-,N/A,,Clear,0,2013-08-31 12:55:00
6:15 AM,69.8,60.8,73,29.90,10.0,Calm,Calm,-,N/A,,Clear,0,2013-08-31 13:15:00
6:35 AM,69.8,60.8,73,29.90,9.0,Calm,Calm,-,N/A,,Clear,0,2013-08-31 13:35:00
6:55 AM,69.8,60.8,73,29.91,7.0,Calm,Calm,-,N/A,,Clear,0,2013-08-31 13:55:00
7:15 AM,69.8,60.8,73,29.92,7.0,Calm,Calm,-,N/A,,Clear,0,2013-08-31 14:15:00
7:35 AM,71.6,62.6,73,29.92,7.0,Calm,Calm,-,N/A,,Clear,0,2013-08-31 14:35:00
7:55 AM,73.4,60.8,65,29.92,8.0,Calm,Calm,-,N/A,,Clear,0,2013-08-31 14:55:00
8:15 AM,73.4,60.8,65,29.93,8.0,Calm,Calm,-,N/A,,Clear,0,2013-08-31 15:15:00
8:35 AM,73.4,60.8,65,29.93,9.0,Calm,Calm,-,N/A,,Clear,0,2013-08-31 15:35:00
8:55 AM,75.2,60.8,61,29.93,10.0,Calm,Calm,-,N/A,,Clear,0,2013-08-31 15:55:00
9:15 AM,75.2,60.8,61,29.94,10.0,SSE,3.5,-,N/A,,Clear,160,2013-08-31 16:15:00
9:35 AM,77.0,62.6,61,29.94,10.0,SW,3.5,-,N/A,,Clear,220,2013-08-31 16:35:00
9:55 AM,78.8,62.6,57,29.94,10.0,Calm,Calm,-,N/A,,Clear,0,2013-08-31 16:55:00
10:15 AM,80.6,60.8,51,29.94,10.0,Calm,Calm,-,N/A,,Clear,0,2013-08-31 17:15:00
10:35 AM,80.6,62.6,54,29.94,10.0,South,4.6,-,N/A,,Clear,190,2013-08-31 17:35:00
10:55 AM,82.4,60.8,48,29.93,10.0,Calm,Calm,-,N/A,,Clear,0,2013-08-31 17:55:00
11:15 AM,86.0,59.0,40,29.92,10.0,WNW,3.5,-,N/A,,Clear,290,2013-08-31 18:15:00
11:35 AM,87.8,59.0,38,29.92,10.0,West,5.8,-,N/A,,Clear,280,2013-08-31 18:35:00
11:55 AM,87.8,57.2,35,29.92,10.0,West,6.9,-,N/A,,Clear,280,2013-08-31 18:55:00
12:15 PM,89.6,57.2,33,29.91,10.0,WNW,8.1,-,N/A,,Clear,290,2013-08-31 19:15:00
12:35 PM,89.6,57.2,33,29.91,10.0,NW,4.6,-,N/A,,Clear,310,2013-08-31 19:35:00
12:55 PM,89.6,59.0,36,29.90,10.0,WNW,4.6,-,N/A,,Clear,290,2013-08-31 19:55:00
1:15 PM,89.6,59.0,36,29.89,10.0,NW,4.6,-,N/A,,Clear,320,2013-08-31 20:15:00
1:35 PM,91.4,60.8,36,29.89,10.0,WNW,5.8,-,N/A,,Clear,290,2013-08-31 20:35:00
1:55 PM,91.4,60.8,36,29.88,10.0,West,4.6,-,N/A,,Clear,280,2013-08-31 20:55:00
2:15 PM,91.4,60.8,36,29.87,10.0,West,4.6,-,N/A,,Clear,270,2013-08-31 21:15:00
2:35 PM,93.2,59.0,32,29.86,10.0,West,3.5,-,N/A,,Clear,280,2013-08-31 21:35:00
2:55 PM,93.2,62.6,36,29.86,10.0,West,5.8,-,N/A,,Clear,260,2013-08-31 21:55:00
3:15 PM,95.0,60.8,32,29.85,10.0,West,3.5,-,N/A,,Clear,280,2013-08-31 22:15:00
3:35 PM,95.0,57.2,28,29.84,10.0,West,4.6,-,N/A,,Clear,280,2013-08-31 22:35:00
3:55 PM,95.0,57.2,28,29.83,10.0,WNW,4.6,-,N/A,,Clear,290,2013-08-31 22:55:00
4:15 PM,95.0,59.0,30,29.83,10.0,West,5.8,-,N/A,,Clear,270,2013-08-31 23:15:00
4:35 PM,96.8,57.2,27,29.82,10.0,North,5.8,-,N/A,,Clear,10,2013-08-31 23:35:00
4:55 PM,96.8,57.2,27,29.81,10.0,NW,3.5,-,N/A,,Clear,310,2013-08-31 23:55:00
5:15 PM,95.0,53.6,25,29.81,10.0,NNE,5.8,-,N/A,,Clear,30,2013-09-01 00:15:00
5:35 PM,93.2,53.6,26,29.81,10.0,NE,5.8,-,N/A,,Clear,40,2013-09-01 00:35:00
5:55 PM,93.2,51.8,24,29.81,10.0,NNE,4.6,-,N/A,,Clear,20,2013-09-01 00:55:00
6:15 PM,93.2,53.6,26,29.81,10.0,NNE,3.5,-,N/A,,Clear,20,2013-09-01 01:15:00
6:35 PM,93.2,53.6,26,29.81,10.0,NE,3.5,-,N/A,,Clear,50,2013-09-01 01:35:00
6:55 PM,91.4,53.6,28,29.81,10.0,ENE,3.5,-,N/A,,Clear,60,2013-09-01 01:55:00
7:15 PM,89.6,55.4,31,29.81,10.0,ENE,3.5,-,N/A,,Clear,60,2013-09-01 02:15:00
7:35 PM,87.8,55.4,33,29.81,10.0,Calm,Calm,-,N/A,,Clear,0,2013-09-01 02:35:00
7:55 PM,84.2,60.8,45,29.81,10.0,Calm,Calm,-,N/A,,Clear,0,2013-09-01 02:55:00
8:15 PM,82.4,60.8,48,29.81,5.0,Calm,Calm,-,N/A,,Clear,0,2013-09-01 03:15:00
8:35 PM,82.4,60.8,48,29.82,10.0,Calm,Calm,-,N/A,,Clear,0,2013-09-01 03:35:00
8:55 PM,80.6,60.8,51,29.83,10.0,Calm,Calm,-,N/A,,Clear,0,2013-09-01 03:55:00
9:15 PM,78.8,60.8,54,29.84,10.0,Calm,Calm,-,N/A,,Clear,0,2013-09-01 04:15:00
9:35 PM,78.8,62.6,57,29.84,10.0,WSW,6.9,-,N/A,,Clear,250,2013-09-01 04:35:00
9:55 PM,78.8,60.8,54,29.85,10.0,Calm,Calm,-,N/A,,Clear,0,2013-09-01 04:55:00
10:15 PM,80.6,60.8,51,29.85,10.0,Calm,Calm,-,N/A,,Clear,0,2013-09-01 05:15:00
10:35 PM,80.6,62.6,54,29.86,10.0,Calm,Calm,-,N/A,,Clear,0,2013-09-01 05:35:00
10:55 PM,77.0,60.8,57,29.86,10.0,Calm,Calm,-,N/A,,Clear,0,2013-09-01 05:55:00
11:15 PM,77.0,62.6,61,29.86,10.0,West,5.8,-,N/A,,Clear,260,2013-09-01 06:15:00
11:35 PM,77.0,60.8,57,29.87,10.0,West,4.6,-,N/A,,Clear,280,2013-09-01 06:35:00
11:55 PM,78.8,60.8,54,29.87,10.0,WNW,9.2,-,N/A,,Clear,290,2013-09-01 06:55:00